Regional Weather Roundup
Issued by NWS

Home | Current Version | Previous Version | Graphics & Text | Print | Product List | Glossary On
Versions: 1 2 3 4 5 6 7 8 9 10 11 12 13 14 15 16 17 18 19 20 21 22 23 24 25 26 27 28 29 30 31 32 33 34 35 36 37 38 39 40 41 42 43 44 45 46 47 48 49 50
000
ASUS43 KIND 262209
RWRIN

WEATHER ROUNDUP FOR INDIANA
NATIONAL WEATHER SERVICE INDIANAPOLIS IN
600 PM EDT TUE JUL 26 2016

NOTE: "FAIR" INDICATES FEW OR NO CLOUDS BELOW 12,000 FEET WITH NO
SIGNIFICANT WEATHER AND/OR OBSTRUCTIONS TO VISIBILITY.

* - STATION DOES NOT REPORT WEATHER SUCH AS PRECIPITATION OR FOG.

+ - STATION NOT QUALITY CONTROLLED BY THE NATIONAL WEATHER SERVICE.
    USE DATA WITH CAUTION...ESPECIALLY DEWPOINT AND RELATIVE
    HUMIDITY OBSERVATIONS.

INZ001>003-010>013-019-020-262300-
NORTHWEST INDIANA

CITY           SKY/WX    TMP DP  RH WIND       PRES   REMARKS
GARY /AIRPORT/ MOSUNNY   84  66  54 N7        30.01F
KNOX *+        MOSUNNY   84  52  32 NW5       30.00F
LA PORTE +     SUNNY     86  63  46 NW6       30.02F
MICHIGAN CITY+ SUNNY     82  63  51 NW6       30.02S
MONTICELLO +   MOSUNNY   83  64  53 NE3       30.00S
RENSSELAER +   SUNNY     82  64  54 CALM      30.01F
VALPARAISO     PTSUNNY   83  65  54 NE5       30.01F

$$

LMZ046-743>745-262300-
SOUTHERN LAKE MICHIGAN

STATION/POSITION TIME  TEMP    WIND        PRES    WAVE
                       AIR SEA DIR/SP/G            HT
                 (UTC) (F)     (DEG/KT/KT) (MB)    (FT)
BURNS HARBOR     2100   78      30/ 10/ 10 1016.9F
MICHIGAN CITY    2100   78     350/ 10/ 10   N/A
5NW MICH CITY    2200   78 78   40/  6/  6   N/A     1

$$

INZ004-005-014>016-021>024-262300-
NORTH CENTRAL INDIANA

CITY           SKY/WX    TMP DP  RH WIND       PRES   REMARKS
ELKHART        MOSUNNY   84  68  58 N5        30.01F
GOSHEN         SUNNY     84  57  39 NE6       30.01F
LOGANSPORT +   PTSUNNY   81  64  57 CALM      30.01F
PERU/GRISSOM   SUNNY     85  64  48 NW6       29.99F
ROCHESTER +    SUNNY     86  63  45 N3        30.02S
SOUTH BEND     SUNNY     83  66  56 NW10      30.01F
WARSAW +       SUNNY     82  63  51 N3        30.01F

$$

INZ006>009-017-018-025>027-262300-
NORTHEAST INDIANA

CITY           SKY/WX    TMP DP  RH WIND       PRES   REMARKS
ANGOLA *+        N/A     84  81  89 N5        30.01F HX  98
AUBURN +       SUNNY     86  54  32 CALM      30.01S
FORT WAYNE     MOSUNNY   86  63  45 S8        30.00F
HUNTINGTON +   SUNNY     83  64  52 S5        30.00F

$$

INZ028-029-035-036-043>045-051>053-262300-
WEST CENTRAL INDIANA

CITY           SKY/WX    TMP DP  RH WIND       PRES   REMARKS
CRAWFORDSVL +  SUNNY     80  66  61 CALM      30.01F
GREENCASTLE +  SUNNY     81  73  78 E3        30.01F
LAFAYETTE      SUNNY     83  69  62 CALM      29.99F
TERRE HAUTE    SUNNY     83  71  67 N5        29.99F

$$

INZ030>032-037>040-046>048-054>057-064-065-262300-
CENTRAL INDIANA

CITY           SKY/WX    TMP DP  RH WIND       PRES   REMARKS
COLUMBUS       MOSUNNY   79  75  89 E5        29.99F
INDIANAPOLIS   CLOUDY    83  68  60 VRB5      30.01S
-EAGLE CREEK   MOSUNNY   84  64  50 NE5       30.00F
KOKOMO *+      SUNNY     86  63  45 NW3       30.00F
MARION +       MOSUNNY   83  64  52 CALM      30.01F HAZE
MT COMFORT *+  SUNNY     81  66  61 NE7       30.02S
SHELBYVILLE    SUNNY     83  69  62 NE7       30.00F
ZIONSVILLE +   CLOUDY    80  67  64 CALM      30.03S

$$

INZ033-034-041-042-049-050-058-059-262300-
EAST CENTRAL INDIANA

CITY           SKY/WX    TMP DP  RH WIND       PRES   REMARKS
MUNCIE         CLOUDY    83  68  60 CALM      30.02S

$$

INZ060-061-067>069-081>083-085>088-262300-
SOUTHWEST INDIANA

CITY           SKY/WX    TMP DP  RH WIND       PRES   REMARKS
EVANSVILLE     PTSUNNY   83  74  74 CALM      29.97S
HUNTINGBURG *+ PTSUNNY   88  75  66 W6        29.97S HX  97
WASHINGTON +   MOSUNNY   85  77  76 MISG      29.97R HX  95

$$

INZ062-063-066-070>080-084-089>092-262300-
SOUTH CENTRAL AND SOUTHEAST INDIANA

CITY           SKY/WX    TMP DP  RH WIND       PRES   REMARKS
BLOOMINGTON    PTSUNNY   86  74  67 NE8       29.99F
MADISON *+     SUNNY     84  72  65 NE5       30.00F

$$




USA.gov is the U.S. government's official web portal to all federal, state and local government web resources and services.